Rome Ciampino, Italy

5:25 AM CEST on April 25, 2018 (GMT +0200)
Ciampino

Weather History for LIRA - October, 2014

Change the Weather History Date:

Wednesday, October 29, 2014

  Actual Average Record
Temperature  
Mean Temperature 56 °F -  
Max Temperature 66 °F 61 °F 75 °F (1999)
Min Temperature 46 °F 44 °F 42 °F (2010)
Degree Days  
Heating Degree Days 9    
Growing Degree Days 6 (Base 50)    
Moisture  
Dew Point 48 °F    
Average Humidity 77    
Maximum Humidity 100    
Minimum Humidity 47    
Precipitation  
Precipitation 0.00 in 0.17 in - ()
Sea Level Pressure  
Sea Level Pressure 30.06 in    
Wind  
Wind Speed 2 mph ()    
Max Wind Speed 6 mph    
Max Gust Speed -    
Visibility 6.6 miles    
Events      
Averages and records for this station are not official NWS values.
T = Trace of Precipitation, MM = Missing Value Source: Averaged Metar Reports

Daily Weather History Graph

Daily Weather History Graph

Search for Another Location

Airport or City:

Astronomy

Oct. 29, 2014 Rise Set
Actual Time 6:38 AM CET 5:08 PM CET
Civil Twilight 6:09 AM CET 5:37 PM CET
Nautical Twilight 5:36 AM CET 6:09 PM CET
Astronomical Twilight 5:04 AM CET 6:42 PM CET
Moon 11:44 AM CET (10/29) 9:58 PM CET (10/29)
Length of Visible Light 11h 27m
Length of Day
10h 30m
Waxing Crescent, 32% of the Moon is Illuminated
Oct 29
Waxing Crescent
Oct 31
First Quarter
Nov 6
Full
Nov 14
Last Quarter
Nov 22
New

Hourly Weather History & Observations

Time (CET) Temp. Windchill Dew Point Humidity Pressure Visibility Wind Dir Wind Speed Gust Speed Precip Events Conditions
12:15 AM 50.0 °F - 44.6 °F 82% 30.06 in - NNE 1.2 mph - N/A   Clear
12:45 AM 48.2 °F - 46.4 °F 93% 30.06 in - NE 4.6 mph - N/A   Clear
1:00 AM 47 °F - 46 °F 92% 30.08 in 6 mi NE 4.6 mph - -  
1:15 AM 46.4 °F 43.5 °F 46.4 °F 100% 30.06 in - NE 5.8 mph - N/A   Clear
1:45 AM 46.4 °F 44.3 °F 44.6 °F 93% 30.06 in - NE 4.6 mph - N/A   Clear
2:15 AM 48.2 °F - 46.4 °F 93% 30.06 in - Calm Calm - N/A   Clear
2:45 AM 46.4 °F - 44.6 °F 93% 30.06 in - NE 1.2 mph - N/A   Clear
3:15 AM 46.4 °F - 44.6 °F 93% 30.04 in 6.2 mi Calm Calm - N/A   Partly Cloudy
3:45 AM 46.4 °F - 44.6 °F 93% 30.04 in 6.2 mi NE 2.3 mph - N/A   Scattered Clouds
4:00 AM 47 °F - 45 °F 92% 30.07 in 6 mi NE 2.3 mph - -   Partly Cloudy
4:15 AM 46.4 °F - 44.6 °F 93% 30.04 in 6.2 mi North 2.3 mph - N/A   Scattered Clouds
4:45 AM 46.4 °F - 44.6 °F 93% 30.04 in 6.2 mi NE 1.2 mph - N/A   Scattered Clouds
5:15 AM 46.4 °F - 44.6 °F 93% 30.04 in 6.2 mi NE 1.2 mph - N/A   Scattered Clouds
5:45 AM 46.4 °F - 44.6 °F 93% 30.04 in 6.2 mi NE 2.3 mph - N/A   Scattered Clouds
6:15 AM 46.4 °F - 44.6 °F 93% 30.04 in 6.2 mi East 2.3 mph - N/A   Scattered Clouds
6:45 AM 46.4 °F - 44.6 °F 93% 30.04 in 6.2 mi North 2.3 mph - N/A   Mostly Cloudy
7:00 AM 46 °F - 44 °F 92% 30.06 in 9 mi North 2.3 mph - -   Scattered Clouds
7:15 AM 46.4 °F - 44.6 °F 93% 30.04 in 6.2 mi NE 1.2 mph - N/A   Mostly Cloudy
7:45 AM 48.2 °F - 46.4 °F 93% 30.04 in 6.2 mi NE 2.3 mph - N/A   Scattered Clouds
8:15 AM 50.0 °F - 48.2 °F 94% 30.04 in 6.2 mi NE 1.2 mph - N/A   Mostly Cloudy
8:45 AM 53.6 °F - 48.2 °F 82% 30.06 in 6.2 mi NE 3.5 mph - N/A   Mostly Cloudy
9:15 AM 53.6 °F - 46.4 °F 77% 30.06 in 6.2 mi NNE 3.5 mph - N/A   Mostly Cloudy
9:45 AM 57.2 °F - 48.2 °F 72% 30.06 in 6.2 mi NNE 3.5 mph - N/A   Mostly Cloudy
10:00 AM 57 °F - 48 °F 64% 30.08 in 9 mi NNE 3.5 mph - -   Scattered Clouds
10:15 AM 60.8 °F - 50.0 °F 68% 30.06 in 6.2 mi NNE 1.2 mph - N/A   Mostly Cloudy
10:45 AM 62.6 °F - 50.0 °F 63% 30.06 in 6.2 mi North 2.3 mph - N/A   Mostly Cloudy
11:15 AM 62.6 °F - 50.0 °F 63% 30.06 in 6.2 mi North 1.2 mph - N/A   Mostly Cloudy
11:45 AM 64.4 °F - 50.0 °F 59% 30.06 in 6.2 mi Calm Calm - N/A   Mostly Cloudy
12:15 PM 64.4 °F - 50.0 °F 59% 30.06 in 6.2 mi NW 3.5 mph - N/A   Mostly Cloudy
12:45 PM 66.2 °F - 50.0 °F 56% 30.06 in 6.2 mi North 3.5 mph - N/A   Mostly Cloudy
1:00 PM 65 °F - 49 °F 47% 30.07 in 12 mi North 3.5 mph - -   Scattered Clouds
1:15 PM 66.2 °F - 48.2 °F 52% 30.06 in 6.2 mi NW 2.3 mph - N/A   Mostly Cloudy
1:45 PM 66.2 °F - 50.0 °F 56% 30.06 in 6.2 mi WNW 3.5 mph - N/A   Mostly Cloudy
2:15 PM 66.2 °F - 50.0 °F 56% 30.06 in 6.2 mi NW 4.6 mph - N/A   Mostly Cloudy
2:45 PM 66.2 °F - 50.0 °F 56% 30.06 in 6.2 mi NNW 2.3 mph - N/A   Mostly Cloudy
3:15 PM 64.4 °F - 48.2 °F 56% 30.06 in 6.2 mi Calm Calm - N/A   Mostly Cloudy
3:45 PM 64.4 °F - 48.2 °F 56% 30.04 in 6.2 mi Calm Calm - N/A   Scattered Clouds
4:00 PM 64 °F - 49 °F 47% 30.05 in 12 mi Calm Calm - -   Scattered Clouds
4:15 PM 64.4 °F - 50.0 °F 59% 30.04 in 6.2 mi WSW 1.2 mph - N/A   Partly Cloudy
4:45 PM 64.4 °F - 48.2 °F 56% 30.04 in 6.2 mi West 1.2 mph - N/A   Partly Cloudy
5:15 PM 62.6 °F - 50.0 °F 63% 30.04 in 6.2 mi Calm Calm - N/A   Scattered Clouds
5:45 PM 60.8 °F - 50.0 °F 68% 30.04 in 6.2 mi Calm Calm - N/A   Partly Cloudy
6:15 PM 59.0 °F - 50.0 °F 72% 30.06 in 6.2 mi Calm Calm - N/A   Scattered Clouds
6:45 PM 59.0 °F - 51.8 °F 77% 30.06 in 6.2 mi Calm Calm - N/A   Scattered Clouds
7:00 PM 59 °F - 51 °F 67% 30.08 in 9 mi Calm Calm - -   Scattered Clouds
7:15 PM 57.2 °F - 51.8 °F 82% 30.06 in 6.2 mi Calm Calm - N/A   Partly Cloudy
7:45 PM 57.2 °F - 51.8 °F 82% 30.06 in 6.2 mi East 2.3 mph - N/A   Partly Cloudy
8:15 PM 59.0 °F - 51.8 °F 77% 30.06 in 6.2 mi Calm Calm - N/A   Scattered Clouds
8:45 PM 59.0 °F - 51.8 °F 77% 30.06 in 6.2 mi ENE 3.5 mph - N/A   Scattered Clouds
9:15 PM 59.0 °F - 53.6 °F 82% 30.06 in 6.2 mi Calm Calm - N/A   Scattered Clouds
9:45 PM 57.2 °F - 50.0 °F 77% 30.06 in 6.2 mi Calm Calm - N/A   Partly Cloudy
10:00 PM 58 °F - 51 °F 70% 30.09 in 7 mi Calm Calm - -   Scattered Clouds
10:15 PM 55.4 °F - 50.0 °F 82% 30.06 in 6.2 mi East 3.5 mph - N/A   Partly Cloudy
10:45 PM 55.4 °F - 50.0 °F 82% 30.06 in 6.2 mi East 2.3 mph - N/A   Partly Cloudy
11:15 PM 55.4 °F - 50.0 °F 82% 30.09 in 6.2 mi NNE 3.5 mph - N/A   Partly Cloudy
11:45 PM 53.6 °F - 50.0 °F 88% 30.09 in 6.2 mi Calm Calm - N/A   Partly Cloudy